STARLINK-32783, 62606

Orbit data source: Space-Track

STARLINK-32783, 62606 is a payload satellite owned by SpaceX/Seattle (US) in LEO that was launched on Mon, 13 Jan 2025 UTC via an FALCON 9 launch vehicle from the Air Force Eastern Test Range (AFETR). Payload-class satellites include a variety of spacecraft equipped with specific instruments for various scientific and technological missions. These include communications satellites like Starlink; space stations such as the ISS; scientific satellites like the Hubble; Earth observation satellites from companies like Planet Labs, Umbra, and HawkEye 360; GPS; miniature CubeSats for education and research; and military/defense satellites.

Loading next visibility...
Identifier
62606, 2025-008V
Orbit
LEO
Country
Flag of USUS
Related business
Manufacturer
SpaceX/Seattle
Mission
Operational Commercial Communications
Bus & Motor
STARLINK V2M, Unknown motor
Mass
730 kg wet, ~700 kg dry
Launch date (UTC)
2025-01-13 (1 year ago)
Launch vehicle
FALCON 9
Launch site
Air Force Eastern Test Range (AFETR)
Object type
Payload
Rocket body
Debris
Shape & HBR
Box + 2 Pan, 17.7 m
Radar Cross Section
33.884 m², Large (>1 m²)

Expand to show TLE details & history
Last TLE update: 19 hours ago

TLE from 19 hours ago
0 STARLINK-32783
1 62606U 25008V   26120.33663888  .00024233  00000-0  88673-3 0  9990
2 62606  43.0018 346.2015 0001233 277.2699  82.8013 15.27599264 73462
Epoch: 2026-04-30T08:04Z
TLE epoch observation values (Epoch: 2026-04-30T08:04:45.599Z)
Latitude
0.00003°
Longitude
6.72683°
Altitude
482.661 km
Speed
7.626 km/s
True Right ascension
23h 04m 48s
True Declination
0° 00' 00"
Sunlit
Object was in daylight at epoch
Visualization orbit readout
Latitude
Unknown
Longitude
Unknown
Altitude
Unknown
Speed
Unknown
Apparent Right ascension
Unknown
Apparent Declination
Unknown
Sunlit
N/A
Visualization observer readout
Local Sidereal Time
10:24:26
Azimuth
Unknown
Elevation
Unknown
Doppler factor
Unknown
Orbital elements
Apogee altitude
485.783 km
Perigee altitude
484.09 km
Semi-major axis
6,863.073 km
Eccentricity
0.00012
Inclination
43.0018°
RAAN
346.2015°
Arg. of periapsis
277.2699°
True anomaly
82.81532°
Mean anomaly
82.8013°
Eccentric anomaly
82.80831°
Mean motion
3.81738 °/min
Orbital period
94.31 mins
BSTAR
0.00088673
Loading maneuver chart data...
Computing Atmospheric mass density...
Loading historical data...
Loading historical data...
Loading historical data...
Loading historical data...
Loading historical data...
Loading historical data...
Loading historical data...

Documentation

Showing up to 5 results
|